Location: Girdwood
(60.9430°N, 149.1660°W)
Time: 05:17:12
(UTC-09:00)

Amateur Radio Satellites - All Passes

Search period start: 08 February 2016 04:47
Search period end: 09 February 2016 04:47
Location: Girdwood, 60.9430°N, 149.1660°W

Satellite Date Start Highest point End Downlink Frequencies (MHz)
Time Altitude Azimuth
STRAND 1 08 Feb 04:50:05 04:54:00 23° 44° (NE) 04:57:56 437.568
CUBESAT XI-V 08 Feb 04:55:39 05:00:19 61° 66° (ENE) 05:05:00 437.345
Cosmos 2504 08 Feb 05:03:50 05:11:41 39° 81° (E) 05:19:41 435.465 / 435.565
Cosmos 2491 08 Feb 05:05:21 05:12:43 32° 283° (WNW) 05:20:06 435.465 / 435.565
ITAMSAT 1 08 Feb 05:08:02 05:13:07 52° 299° (WNW) 05:18:11 435.822/435.867
M-CUBED/EXP-1 PRIME 08 Feb 05:11:23 05:14:16 27° 104° (ESE) 05:17:13 437.505
CUSAT 1 08 Feb 05:22:49 05:30:14 36° 311° (NW) 05:37:10 437.405
AUBIESAT-1 08 Feb 05:22:52 05:25:52 30° 105° (ESE) 05:28:57 437.475
DANDE 08 Feb 05:39:09 05:46:58 42° 309° (NW) 05:54:49 436.750
Oscar 19 08 Feb 05:43:47 05:46:52 16° 325° (NW) 05:49:55 437.125/150
PRISM 08 Feb 05:46:56 05:49:52 19° 47° (NE) 05:52:48 437.425
AIST 2 08 Feb 05:48:32 05:49:59 12° 246° (WSW) 05:51:26 435.215
HORYU 2 08 Feb 05:49:29 05:53:57 71° 106° (ESE) 05:58:24 437.375
SO-50 08 Feb 05:51:43 05:54:26 15° 114° (ESE) 05:57:08 436.795
AO-7 08 Feb 05:58:27 06:06:52 89° 296° (WNW) 06:15:13 29.400- 29.500
Gurwin Techsat 1B 08 Feb 05:58:58 06:02:59 22° 317° (NW) 06:06:59 435.225
MOZHAYETS 4 08 Feb 06:01:38 06:03:29 12° 281° (W) 06:05:20
YUBILEINY 08 Feb 06:07:49 06:16:25 54° 299° (WNW) 06:25:06 435.215
JAS-2 08 Feb 06:18:01 06:22:15 19° 331° (NNW) 06:26:11 435.910
BRITE-PL 08 Feb 06:19:36 06:22:34 15° 79° (ENE) 06:25:23 437.365/2234.400
STRAND 1 08 Feb 06:27:24 06:32:31 71° 66° (ENE) 06:37:40 437.568
CUTE-I 08 Feb 06:31:43 06:36:18 28° 90° (E) 06:40:53 437.470
CUBESAT XI-V 08 Feb 06:33:51 06:38:03 31° 268° (W) 06:42:17 437.345
Cubesat XI-IV 08 Feb 06:44:45 06:49:37 33° 93° (E) 06:54:27 437.490
LilacSat-2 08 Feb 06:44:51 06:48:03 25° 92° (E) 06:51:14 437.200
M-CUBED/EXP-1 PRIME 08 Feb 06:45:59 06:49:07 42° 304° (NW) 06:52:19 437.505
ITAMSAT 1 08 Feb 06:48:09 06:51:39 19° 322° (NW) 06:55:11 435.822/435.867
Cosmos 2504 08 Feb 06:55:41 07:04:28 82° 286° (WNW) 07:13:29 435.465 / 435.565
AUBIESAT-1 08 Feb 06:57:28 07:00:37 40° 305° (NW) 07:03:49 437.475
Cosmos 2491 08 Feb 07:06:22 07:06:36 10° 310° (NW) 07:06:51 435.465 / 435.565
CUSAT 1 08 Feb 07:09:25 07:14:53 19° 336° (NNW) 07:19:58 437.405
PRISM 08 Feb 07:20:27 07:24:37 73° 69° (ENE) 07:28:51 437.425
DOVE 4 08 Feb 07:25:38 07:28:07 15° 82° (E) 07:30:33 437.250
DANDE 08 Feb 07:25:58 07:32:20 23° 335° (NNW) 07:38:32 436.750
HORYU 2 08 Feb 07:26:28 07:30:15 28° 307° (NW) 07:34:02 437.375
SO-50 08 Feb 07:29:12 07:33:58 48° 135° (SE) 07:38:44 436.795
GOMX 1 08 Feb 07:34:30 07:38:33 28° 90° (E) 07:42:21 467.674
Gurwin Techsat 1B 08 Feb 07:40:21 07:41:16 10° 341° (NNW) 07:42:11 435.225
UNISAT 6 08 Feb 07:42:52 07:44:38 12° 39° (NE) 07:46:25 437.425
GONETS M04 08 Feb 07:43:47 07:49:11 18° 63° (ENE) 07:54:35
CUTE 1.7 + AOD 2 08 Feb 07:44:45 07:45:50 11° 79° (E) 07:46:55 437.475
AO-7 08 Feb 07:51:26 07:59:03 41° 322° (NW) 08:06:38 29.400- 29.500
SEEDS 08 Feb 07:54:38 07:55:23 10° 79° (E) 07:56:08 437.485
BRITE-PL 08 Feb 07:57:05 08:02:12 65° 102° (ESE) 08:06:52 437.365/2234.400
JAS-2 08 Feb 08:02:31 08:05:07 13° 357° (N) 08:07:36 435.910
STRAND 1 08 Feb 08:07:42 08:12:11 30° 268° (W) 08:16:41 437.568
YUBILEINY 08 Feb 08:08:41 08:15:40 25° 328° (NNW) 08:22:43 435.215
CUTE-I 08 Feb 08:11:34 08:16:58 80° 292° (WNW) 08:22:22 437.470
HO-68 08 Feb 08:14:11 08:20:10 27° 87° (E) 08:26:07 435.675
AAUSAT CUBESAT 2 08 Feb 08:14:25 08:14:55 10° 79° (E) 08:15:24 437.432
LilacSat-2 08 Feb 08:18:57 08:22:41 55° 293° (WNW) 08:26:23 437.200
M-CUBED/EXP-1 PRIME 08 Feb 08:21:58 08:23:08 11° 325° (NW) 08:24:17 437.505
Cosmos 2499 08 Feb 08:22:11 08:26:52 16° 59° (ENE) 08:31:32 435.465 / 435.565
Cubesat XI-IV 08 Feb 08:24:46 08:30:08 68° 295° (WNW) 08:35:29 437.490
ANTELSAT 08 Feb 08:26:03 08:29:14 21° 49° (NE) 08:32:24 437.575/2403.000
CANX-2 08 Feb 08:27:49 08:31:21 24° 90° (E) 08:34:52 2200.000
CINEMA 3 08 Feb 08:32:47 08:35:59 20° 88° (E) 08:39:07 145.822/145.860
TIGRISAT 08 Feb 08:33:25 08:36:42 22° 51° (NE) 08:39:58 435.000
AUBIESAT-1 08 Feb 08:33:28 08:34:31 11° 326° (NNW) 08:35:34 437.475
O/OREOS (USA 219) 08 Feb 08:39:29 08:42:30 18° 103° (ESE) 08:45:34 437.305
POPSAT HIP 1 08 Feb 08:47:33 08:49:36 13° 41° (NE) 08:51:38 437.405
Cosmos 2504 08 Feb 08:51:22 08:59:18 35° 313° (NW) 09:07:19 435.465 / 435.565
CUBEBUG 2 08 Feb 08:52:08 08:54:27 14° 84° (E) 08:56:46 437.445
NANOSAT C BR1 08 Feb 08:53:09 08:55:22 14° 42° (NE) 08:57:34 145.865
DUCHIFAT 1 08 Feb 08:55:21 08:57:34 14° 42° (NE) 08:59:47 145.980
CUSAT 1 08 Feb 08:56:02 09:00:22 16° 4° (N) 09:04:21 437.405
UWE-3 08 Feb 08:56:58 08:58:49 13° 82° (E) 09:00:39 435.000/436.395/437.385
PRISM 08 Feb 08:57:06 09:00:26 23° 269° (W) 09:03:48 437.425
QB50P1 08 Feb 08:59:45 09:02:16 16° 44° (NE) 09:04:46 145.935-145.965
DOVE 4 08 Feb 09:02:19 09:06:48 72° 105° (ESE) 09:11:01 437.250
Oscar 11 08 Feb 09:04:15 09:06:35 14° 83° (E) 09:08:55 145.826/435.025
SO-50 08 Feb 09:09:27 09:14:25 74° 338° (NNW) 09:19:22 436.795
GOMX 1 08 Feb 09:12:24 09:17:06 64° 293° (WNW) 09:21:29 467.674
DANDE 08 Feb 09:13:12 09:18:38 18° 2° (N) 09:23:47 436.750
UNISAT 6 08 Feb 09:16:24 09:20:25 40° 61° (ENE) 09:24:27 437.425
COMPASS 1 08 Feb 09:17:04 09:20:57 34° 95° (E) 09:24:49 437.405
CUTE 1.7 + AOD 2 08 Feb 09:18:31 09:22:43 51° 100° (E) 09:26:55 437.475
SEEDS 08 Feb 09:28:00 09:32:09 50° 100° (E) 09:36:19 437.485
GONETS M04 08 Feb 09:35:42 09:44:00 54° 90° (E) 09:52:24
BRITE-PL 08 Feb 09:35:51 09:40:27 33° 306° (NW) 09:44:43 437.365/2234.400
DELFI C3 08 Feb 09:40:29 09:43:03 16° 86° (E) 09:45:36 145.870
AO-7 08 Feb 09:43:34 09:50:03 26° 348° (NNW) 09:56:31 29.400- 29.500
JAS-2 08 Feb 09:43:59 09:47:51 16° 22° (NNE) 09:51:31 435.910
AAUSAT CUBESAT 2 08 Feb 09:47:21 09:51:28 49° 100° (E) 09:55:34 437.432
POLYITAN 1 08 Feb 09:50:02 09:53:42 29° 56° (NE) 09:57:23 437.675
QB50P2 08 Feb 09:50:44 09:54:26 30° 56° (ENE) 09:58:09 145.880/145.840
CUTE-I 08 Feb 09:52:05 09:56:27 26° 314° (NW) 10:00:48 437.470
ZACube-1 08 Feb 09:53:58 09:57:29 26° 92° (E) 10:01:02 437.345
LilacSat-2 08 Feb 09:54:26 09:56:18 13° 314° (NW) 09:58:10 437.200
ANTELSAT 08 Feb 10:01:09 10:05:28 83° 70° (ENE) 10:09:46 437.575/2403.000
HO-68 08 Feb 10:01:43 10:09:00 81° 111° (ESE) 10:16:14 435.675
BUGSAT 1 08 Feb 10:02:52 10:06:12 23° 53° (NE) 10:09:31 437.445
CANX-2 08 Feb 10:03:22 10:07:38 69° 292° (WNW) 10:11:55 2200.000
FUNcube-1 08 Feb 10:03:53 10:07:33 29° 93° (E) 10:11:15 145.935
Cubesat XI-IV 08 Feb 10:05:22 10:09:29 23° 317° (NW) 10:13:36 437.490
TIGRISAT 08 Feb 10:08:39 10:12:58 90° 22° (NNE) 10:17:15 435.000
CINEMA 3 08 Feb 10:09:28 10:13:42 77° 289° (WNW) 10:17:51 145.822/145.860
Cosmos 2499 08 Feb 10:09:34 10:17:45 45° 85° (E) 10:25:57 435.465 / 435.565
YUBILEINY 08 Feb 10:10:47 10:16:33 18° 1° (N) 10:22:21 435.215
O/OREOS (USA 219) 08 Feb 10:16:44 10:21:14 76° 125° (SE) 10:25:48 437.305
POPSAT HIP 1 08 Feb 10:20:29 10:24:32 45° 63° (ENE) 10:28:35 437.405
NANOSAT C BR1 08 Feb 10:26:13 10:30:18 49° 64° (ENE) 10:34:22 145.865
HUMSAT D 08 Feb 10:27:31 10:30:38 20° 89° (E) 10:33:46 437.325/437.525
CUBEBUG 2 08 Feb 10:27:43 10:31:53 73° 105° (ESE) 10:36:05 437.445
DUCHIFAT 1 08 Feb 10:28:24 10:32:29 49° 64° (ENE) 10:36:34 145.980
UWE-3 08 Feb 10:32:02 10:36:11 62° 103° (ESE) 10:40:21 435.000/436.395/437.385
QB50P1 08 Feb 10:33:10 10:37:20 56° 65° (ENE) 10:41:29 145.935-145.965
Oscar 19 08 Feb 10:35:43 10:38:59 17° 37° (NE) 10:42:14 437.125/150
Oscar 11 08 Feb 10:39:14 10:43:35 67° 104° (ESE) 10:47:55 145.826/435.025
CUSAT 1 08 Feb 10:40:04 10:45:40 23° 31° (NNE) 10:50:29 437.405
DOVE 4 08 Feb 10:40:27 10:44:11 26° 307° (NW) 10:47:45 437.250
RS-15 08 Feb 10:44:38 10:50:18 15° 89° (E) 10:56:04 29.354- 29.394
Cosmos 2504 08 Feb 10:49:49 10:56:00 20° 344° (NNW) 11:02:09 435.465 / 435.565
SO-50 08 Feb 10:50:30 10:55:25 56° 2° (N) 11:00:14 436.795
DX 1 08 Feb 10:50:30 10:50:53 10° 79° (E) 10:51:17 434.975-435.025
GOMX 1 08 Feb 10:51:11 10:54:26 19° 316° (NW) 10:57:32 467.674
AO-85 08 Feb 10:52:37 10:54:57 13° 109° (ESE) 10:57:17 145.980
COMPASS 1 08 Feb 10:52:38 10:56:43 48° 296° (WNW) 11:00:47 437.405
UNISAT 6 08 Feb 10:53:08 10:57:13 41° 262° (W) 11:01:18 437.425
AIST 1 08 Feb 10:53:33 10:57:07 24° 86° (E) 11:00:41
Gurwin Techsat 1B 08 Feb 10:54:17 10:57:00 14° 30° (NNE) 10:59:43 435.225
CUTE 1.7 + AOD 2 08 Feb 10:54:37 10:58:29 34° 301° (WNW) 11:02:21 437.475
DANDE 08 Feb 10:58:19 11:04:50 25° 30° (NNE) 11:10:37 436.750
SEEDS 08 Feb 11:03:57 11:07:48 34° 301° (WNW) 11:11:40 437.485
DELFI C3 08 Feb 11:14:33 11:18:39 83° 109° (ESE) 11:22:42 145.870
BRITE-PL 08 Feb 11:15:21 11:17:35 13° 329° (NNW) 11:19:45 437.365/2234.400
AAUSAT CUBESAT 2 08 Feb 11:23:06 11:26:54 34° 301° (WNW) 11:30:43 437.432
JAS-2 08 Feb 11:25:04 11:31:15 32° 46° (NE) 11:36:54 435.910
POLYITAN 1 08 Feb 11:25:08 11:29:21 61° 257° (WSW) 11:33:33 437.675
QB50P2 08 Feb 11:25:53 11:30:05 59° 257° (WSW) 11:34:18 145.880/145.840
PCSat 08 Feb 11:27:59 11:31:19 17° 108° (ESE) 11:34:41 145.827
ZACube-1 08 Feb 11:30:02 11:34:10 62° 292° (WNW) 11:38:20 437.345
GONETS M04 08 Feb 11:32:19 11:40:54 60° 295° (WNW) 11:49:36
CUTE-I 08 Feb 11:33:07 11:34:56 12° 338° (NNW) 11:36:46 437.470
AO-7 08 Feb 11:34:01 11:40:37 27° 15° (NNE) 11:47:12 29.400- 29.500
VELOX 1 08 Feb 11:36:55 11:40:24 22° 89° (E) 11:43:51 145.980
BUGSAT 1 08 Feb 11:37:01 11:41:15 80° 254° (WSW) 11:45:25 437.445
ANTELSAT 08 Feb 11:39:34 11:42:46 20° 271° (W) 11:45:59 437.575/2403.000
CANX-2 08 Feb 11:40:00 11:42:54 18° 313° (NW) 11:45:48 2200.000
FUNcube-1 08 Feb 11:40:01 11:44:06 54° 294° (WNW) 11:48:12 145.935
ITAMSAT 1 08 Feb 11:41:10 11:44:17 16° 34° (NE) 11:47:25 435.822/435.867
Cubesat XI-IV 08 Feb 11:46:35 11:47:55 11° 341° (NNW) 11:49:14 437.490
50 SAT 08 Feb 11:46:47 11:50:05 27° 94° (E) 11:53:21 437.505
TIGRISAT 08 Feb 11:47:17 11:50:19 18° 273° (W) 11:53:20 435.000
CINEMA 3 08 Feb 11:47:21 11:50:19 19° 312° (NW) 11:53:14 145.822/145.860
HO-68 08 Feb 11:49:44 11:56:21 41° 314° (NW) 12:02:56 435.675
AISAT 08 Feb 11:53:06 11:57:00 29° 93° (E) 12:00:52 437.250
POPSAT HIP 1 08 Feb 11:56:32 12:00:28 36° 263° (W) 12:04:25 437.405
O/OREOS (USA 219) 08 Feb 11:56:54 12:01:04 35° 328° (NNW) 12:05:17 437.305
Cosmos 2499 08 Feb 12:01:42 12:10:34 73° 290° (WNW) 12:19:28 435.465 / 435.565
NANOSAT C BR1 08 Feb 12:02:24 12:06:15 33° 265° (W) 12:10:06 145.865
HUMSAT D 08 Feb 12:02:40 12:06:50 80° 287° (WNW) 12:11:00 437.325/437.525
DUCHIFAT 1 08 Feb 12:04:34 12:08:24 33° 264° (W) 12:12:15 145.980
CUBEBUG 2 08 Feb 12:04:50 12:08:15 25° 306° (NW) 12:11:38 437.445
ESTCUBE 1 08 Feb 12:08:20 12:12:40 40° 97° (E) 12:16:58 437.505/2401.250
UWE-3 08 Feb 12:08:55 12:12:27 28° 304° (NW) 12:16:02 435.000/436.395/437.385
QB50P1 08 Feb 12:09:41 12:13:25 29° 266° (W) 12:17:08 145.935-145.965
YUBILEINY 08 Feb 12:10:10 12:17:22 26° 34° (NE) 12:24:32 435.215
Oscar 19 08 Feb 12:12:22 12:17:19 47° 60° (ENE) 12:22:17 437.125/150
UKube-1 08 Feb 12:14:52 12:18:55 36° 97° (E) 12:22:56 .
Oscar 11 08 Feb 12:15:45 12:19:28 28° 305° (NW) 12:23:11 145.826/435.025
CUBEBUG 1 08 Feb 12:17:26 12:21:33 37° 97° (E) 12:25:38 437.445
CUSAT 1 08 Feb 12:22:50 12:29:52 51° 59° (ENE) 12:35:21 437.405
DX 1 08 Feb 12:23:57 12:28:14 47° 101° (E) 12:32:27 434.975-435.025
SPROUT 08 Feb 12:27:08 12:30:32 22° 90° (E) 12:33:54 437.525
AO-85 08 Feb 12:29:10 12:34:17 41° 130° (SE) 12:39:25 145.980
COMPASS 1 08 Feb 12:29:19 12:31:28 14° 317° (NW) 12:33:37 437.405
AIST 1 08 Feb 12:29:59 12:34:23 68° 288° (WNW) 12:38:49
Gurwin Techsat 1B 08 Feb 12:30:54 12:35:41 35° 53° (NE) 12:40:29 435.225
SO-50 08 Feb 12:31:23 12:36:22 81° 27° (NNE) 12:41:12 436.795
CUTE 1.7 + AOD 2 08 Feb 12:32:16 12:33:17 11° 323° (NW) 12:34:17 437.475
SEEDS 08 Feb 12:41:25 12:42:28 11° 323° (NW) 12:43:31 437.485
DANDE 08 Feb 12:42:00 12:49:56 51° 57° (ENE) 12:56:26 436.750
TISAT 1 08 Feb 12:42:50 12:45:14 15° 84° (E) 12:47:38 437.305
Cosmos 2504 08 Feb 12:47:25 12:53:34 20° 16° (NNE) 12:59:36 435.465 / 435.565
RS-15 08 Feb 12:48:50 12:59:13 45° 117° (ESE) 13:10:08 29.354- 29.394
DELFI C3 08 Feb 12:50:02 12:53:11 22° 307° (NW) 12:56:19 145.870
AAUSAT CUBESAT 2 08 Feb 13:00:28 13:01:22 11° 323° (NW) 13:02:17 437.432
M-CUBED/EXP-1 PRIME 08 Feb 13:01:42 13:02:50 11° 34° (NE) 13:03:58 437.505
POLYITAN 1 08 Feb 13:04:14 13:06:04 13° 278° (W) 13:07:56 437.675
QB50P2 08 Feb 13:05:06 13:06:51 12° 278° (W) 13:08:35 145.880/145.840
ZACube-1 08 Feb 13:07:14 13:09:49 16° 314° (NW) 13:12:25 437.345
JAS-2 08 Feb 13:08:14 13:15:43 81° 67° (ENE) 13:22:24 435.910
PCSat 08 Feb 13:08:26 13:13:44 56° 131° (SE) 13:19:04 145.827
AUBIESAT-1 08 Feb 13:12:40 13:14:01 12° 35° (NE) 13:15:21 437.475
VELOX 1 08 Feb 13:12:58 13:17:27 80° 289° (WNW) 13:21:53 145.980
BUGSAT 1 08 Feb 13:14:40 13:17:19 16° 274° (W) 13:19:58 437.445
FUNcube-1 08 Feb 13:17:18 13:19:37 15° 316° (NW) 13:21:58 145.935
ITAMSAT 1 08 Feb 13:17:48 13:22:41 43° 57° (ENE) 13:27:37 435.822/435.867
50 SAT 08 Feb 13:20:39 13:24:21 51° 294° (WNW) 13:28:03 437.505
AO-7 08 Feb 13:23:57 13:31:44 45° 41° (NE) 13:39:30 29.400- 29.500
AISAT 08 Feb 13:29:26 13:33:50 60° 295° (WNW) 13:38:12 437.250
GONETS M04 08 Feb 13:32:47 13:39:54 27° 324° (NW) 13:47:06
SWISSCUBE 08 Feb 13:34:40 13:37:04 14° 81° (E) 13:39:26 437.505
HO-68 08 Feb 13:37:22 13:42:29 22° 339° (NNW) 13:47:37 435.675
O/OREOS (USA 219) 08 Feb 13:38:12 13:41:42 21° 353° (N) 13:45:14 437.305
HUMSAT D 08 Feb 13:39:01 13:41:58 19° 310° (NW) 13:44:56 437.325/437.525
ESTCUBE 1 08 Feb 13:45:13 13:49:35 46° 299° (WNW) 13:53:57 437.505/2401.250
HORYU 2 08 Feb 13:47:14 13:49:40 15° 40° (NE) 13:52:05 437.375
UKube-1 08 Feb 13:50:57 13:55:08 47° 298° (WNW) 13:59:17 .
Oscar 19 08 Feb 13:51:45 13:56:45 46° 261° (W) 14:01:45 437.125/150
CUBEBUG 1 08 Feb 13:53:46 13:58:00 46° 298° (WNW) 14:02:11 437.445
Cosmos 2499 08 Feb 13:57:35 14:05:22 32° 317° (NW) 14:13:04 435.465 / 435.565
DX 1 08 Feb 14:00:20 14:04:24 37° 302° (WNW) 14:08:25 434.975-435.025
SPROUT 08 Feb 14:02:43 14:07:01 74° 291° (WNW) 14:11:16 437.525
CUSAT 1 08 Feb 14:05:32 14:12:17 51° 267° (W) 14:17:33 437.405
YUBILEINY 08 Feb 14:07:42 14:16:28 58° 63° (ENE) 14:25:10 435.215
AO-85 08 Feb 14:09:06 14:14:39 84° 333° (NNW) 14:20:06 145.980
ITUPSAT 1 08 Feb 14:09:53 14:13:36 21° 88° (E) 14:17:18 437.325
AIST 1 08 Feb 14:09:54 14:12:52 17° 311° (NW) 14:15:51
Gurwin Techsat 1B 08 Feb 14:10:06 14:15:25 69° 255° (WSW) 14:20:46 435.225
SO-50 08 Feb 14:12:05 14:16:40 40° 228° (SW) 14:21:07 436.795
TISAT 1 08 Feb 14:17:29 14:21:43 73° 106° (ESE) 14:25:53 437.305
BEESAT 08 Feb 14:19:16 14:23:13 25° 90° (E) 14:27:11 436.000
DANDE 08 Feb 14:25:22 14:33:16 62° 264° (W) 14:39:37 436.750
Cosmos 2491 08 Feb 14:27:50 14:34:31 26° 71° (ENE) 14:41:12 435.465 / 435.565
M-CUBED/EXP-1 PRIME 08 Feb 14:33:32 14:36:50 40° 55° (NE) 14:40:00 437.505
Cosmos 2504 08 Feb 14:42:19 14:50:17 35° 46° (NE) 14:57:57 435.465 / 435.565
AUBIESAT-1 08 Feb 14:44:38 14:47:58 43° 56° (NE) 14:51:10 437.475
CUTE-I 08 Feb 14:48:26 14:50:52 13° 27° (NNE) 14:53:20 437.470
VELOX 1 08 Feb 14:50:03 14:53:24 21° 312° (NW) 14:56:44 145.980
PCSat 08 Feb 14:51:48 14:57:12 62° 333° (NNW) 15:02:39 145.827
JAS-2 08 Feb 14:54:37 15:01:20 35° 269° (W) 15:07:29 435.910
50 SAT 08 Feb 14:55:54 14:57:40 13° 315° (NW) 14:59:26 437.505
ITAMSAT 1 08 Feb 14:57:05 15:02:10 52° 259° (W) 15:07:18 435.822/435.867
RS-15 08 Feb 14:59:11 15:10:39 86° 146° (SE) 15:22:48 29.354- 29.394
Cubesat XI-IV 08 Feb 15:01:05 15:03:55 15° 30° (NNE) 15:06:45 437.490
AISAT 08 Feb 15:06:43 15:09:37 17° 316° (NW) 15:12:31 437.250
SWISSCUBE 08 Feb 15:11:10 15:15:56 57° 103° (ESE) 15:20:41 437.505
AO-7 08 Feb 15:15:40 15:24:06 83° 246° (WSW) 15:32:32 29.400- 29.500
O/OREOS (USA 219) 08 Feb 15:18:46 15:22:32 25° 18° (NNE) 15:26:19 437.305
HORYU 2 08 Feb 15:21:07 15:25:22 47° 62° (ENE) 15:29:37 437.375
ESTCUBE 1 08 Feb 15:23:00 15:25:30 15° 320° (NW) 15:27:59 437.505/2401.250
HO-68 08 Feb 15:23:28 15:28:00 18° 5° (N) 15:32:33 435.675
UKube-1 08 Feb 15:28:01 15:30:20 14° 320° (NW) 15:32:39 .
CUBEBUG 1 08 Feb 15:31:05 15:33:24 14° 320° (NW) 15:35:43 437.445
GONETS M04 08 Feb 15:35:00 15:40:39 18° 357° (N) 15:46:21
Oscar 19 08 Feb 15:35:50 15:37:27 11° 283° (WNW) 15:39:04 437.125/150
DX 1 08 Feb 15:37:48 15:39:35 12° 324° (NW) 15:41:21 434.975-435.025
SPROUT 08 Feb 15:39:24 15:42:25 19° 312° (NW) 15:45:27 437.525
ITUPSAT 1 08 Feb 15:47:16 15:52:08 90° 324° (NW) 15:56:59 437.325
CUSAT 1 08 Feb 15:49:16 15:52:48 15° 292° (WNW) 15:55:57 437.405
AO-85 08 Feb 15:50:12 15:55:40 58° 356° (N) 16:00:56 145.980
Gurwin Techsat 1B 08 Feb 15:52:52 15:56:24 18° 277° (W) 15:59:57 435.225
TISAT 1 08 Feb 15:53:37 15:57:05 25° 307° (NW) 16:00:32 437.305
SO-50 08 Feb 15:54:35 15:55:59 11° 250° (WSW) 15:57:23 436.795
Cosmos 2499 08 Feb 15:55:58 16:01:56 19° 347° (NNW) 16:07:48 435.465 / 435.565
BEESAT 08 Feb 15:56:45 16:01:34 78° 294° (WNW) 16:06:23 436.000
BRITE-PL 08 Feb 16:03:15 16:06:53 18° 40° (NE) 16:10:23 437.365/2234.400
LilacSat-2 08 Feb 16:04:36 16:06:28 13° 46° (NE) 16:08:19 437.200
YUBILEINY 08 Feb 16:04:52 16:13:27 57° 269° (W) 16:21:59 435.215
MOZHAYETS 4 08 Feb 16:05:39 16:09:08 20° 87° (E) 16:12:36
M-CUBED/EXP-1 PRIME 08 Feb 16:08:28 16:11:38 30° 255° (WSW) 16:14:40 437.505
DANDE 08 Feb 16:09:16 16:14:40 21° 289° (WNW) 16:19:26 436.750
STARS 08 Feb 16:09:17 16:12:54 24° 91° (E) 16:16:28 437.465
AUBIESAT-1 08 Feb 16:19:38 16:22:43 28° 255° (WSW) 16:25:44 437.475
Cosmos 2491 08 Feb 16:21:21 16:30:00 72° 97° (E) 16:38:41 435.465 / 435.565
KKS-1 08 Feb 16:22:17 16:26:34 44° 99° (E) 16:30:49 437.445
CUTE-I 08 Feb 16:24:53 16:29:32 31° 50° (NE) 16:34:13 437.470
PCSat 08 Feb 16:36:10 16:41:23 44° 359° (N) 16:46:38 145.827
Cosmos 2504 08 Feb 16:36:11 16:45:08 81° 73° (ENE) 16:53:35 435.465 / 435.565
Cubesat XI-IV 08 Feb 16:37:54 16:42:44 36° 53° (NE) 16:47:36 437.490
ITAMSAT 1 08 Feb 16:40:30 16:42:54 13° 281° (W) 16:45:19 435.822/435.867
SWISSCUBE 08 Feb 16:49:14 16:53:38 36° 304° (NW) 16:58:01 437.505
HORYU 2 08 Feb 16:57:58 17:02:05 37° 263° (W) 17:06:14 437.375
O/OREOS (USA 219) 08 Feb 16:58:21 17:02:52 54° 42° (NE) 17:07:23 437.305
DOVE 4 08 Feb 17:05:00 17:07:46 15° 42° (NE) 17:10:28 437.250
HO-68 08 Feb 17:07:57 17:13:41 27° 31° (NNE) 17:19:25 435.675
AO-7 08 Feb 17:10:55 17:18:07 31° 271° (W) 17:25:21 29.400- 29.500
RS-15 08 Feb 17:12:10 17:23:53 74° 357° (N) 17:36:10 29.354- 29.394
GOMX 1 08 Feb 17:15:11 17:19:24 25° 51° (NE) 17:23:26 467.674
ITUPSAT 1 08 Feb 17:25:36 17:29:31 25° 311° (NW) 17:33:27 437.325
AO-85 08 Feb 17:31:17 17:36:47 70° 19° (NNE) 17:41:58 145.980
GONETS M04 08 Feb 17:34:44 17:41:35 24° 30° (NNE) 17:48:26
BEESAT 08 Feb 17:35:06 17:38:48 23° 313° (NW) 17:42:30 436.000
LilacSat-2 08 Feb 17:36:21 17:40:05 54° 67° (ENE) 17:43:49 437.200
BRITE-PL 08 Feb 17:38:58 17:44:23 49° 62° (ENE) 17:49:36 437.365/2234.400
MOZHAYETS 4 08 Feb 17:42:18 17:46:59 90° 193° (SSW) 17:51:38
STARS 08 Feb 17:45:21 17:49:44 71° 293° (WNW) 17:54:05 437.465
Cosmos 2499 08 Feb 17:53:00 17:59:13 20° 19° (NNE) 18:05:13 435.465 / 435.565
CANX-2 08 Feb 17:56:32 17:59:07 16° 45° (NE) 18:01:43 2200.000
KKS-1 08 Feb 17:59:01 18:03:11 40° 301° (WNW) 18:07:20 437.445
YUBILEINY 08 Feb 18:02:34 18:08:22 20° 295° (WNW) 18:14:10 435.215
CUTE-I 08 Feb 18:03:52 18:09:14 80° 252° (WSW) 18:14:39 437.470
CINEMA 3 08 Feb 18:08:52 18:11:44 17° 46° (NE) 18:14:31 145.822/145.860
Cubesat XI-IV 08 Feb 18:17:17 18:22:36 67° 255° (WSW) 18:27:59 437.490
Cosmos 2491 08 Feb 18:19:14 18:27:32 46° 304° (WNW) 18:35:53 435.465 / 435.565
CUBESAT XI-V 08 Feb 18:19:15 18:23:41 37° 95° (E) 18:28:04 437.345
PCSat 08 Feb 18:20:12 18:25:36 59° 23° (NNE) 18:31:00 145.827
CUBEBUG 2 08 Feb 18:26:06 18:27:43 12° 40° (NE) 18:29:19 437.445
SWISSCUBE 08 Feb 18:28:06 18:30:18 13° 326° (NNW) 18:32:31 437.505
STRAND 1 08 Feb 18:29:08 18:31:06 12° 78° (ENE) 18:33:04 437.568
Cosmos 2504 08 Feb 18:30:01 18:37:54 38° 279° (W) 18:45:26 435.465 / 435.565
UWE-3 08 Feb 18:30:24 18:31:21 11° 38° (NE) 18:32:19 435.000/436.395/437.385
Oscar 11 08 Feb 18:35:26 18:36:58 12° 38° (NE) 18:38:29 145.826/435.025
O/OREOS (USA 219) 08 Feb 18:37:57 18:42:15 41° 245° (WSW) 18:46:33 437.305
DOVE 4 08 Feb 18:39:52 18:44:39 48° 63° (ENE) 18:49:09 437.250
COMPASS 1 08 Feb 18:43:33 18:46:35 20° 50° (NE) 18:49:39 437.405
CUTE 1.7 + AOD 2 08 Feb 18:45:59 18:49:36 28° 56° (NE) 18:53:14 437.475
GOMX 1 08 Feb 18:51:39 18:57:01 84° 70° (ENE) 19:02:04 467.674
HO-68 08 Feb 18:53:16 19:00:16 58° 56° (NE) 19:07:19 435.675
SEEDS 08 Feb 18:54:43 18:58:16 27° 55° (NE) 19:01:49 437.485
DELFI C3 08 Feb 19:04:52 19:05:47 11° 39° (NE) 19:06:43 145.870
ITUPSAT 1 08 Feb 19:05:25 19:05:58 10° 334° (NNW) 19:06:31 437.325
LilacSat-2 08 Feb 19:11:27 19:14:41 26° 267° (W) 19:17:56 437.200
AO-85 08 Feb 19:12:05 19:17:22 56° 223° (SW) 19:22:18 145.980
AAUSAT CUBESAT 2 08 Feb 19:12:52 19:16:19 26° 55° (NE) 19:19:50 437.432
BRITE-PL 08 Feb 19:17:28 19:22:56 48° 262° (W) 19:28:14 437.365/2234.400
MOZHAYETS 4 08 Feb 19:19:59 19:23:42 24° 309° (NW) 19:27:24
STARS 08 Feb 19:22:24 19:25:31 19° 314° (NW) 19:28:36 437.465
BEESAT 3 08 Feb 19:22:57 19:26:38 37° 133° (SE) 19:30:22 437.485
ZACube-1 08 Feb 19:25:06 19:27:51 17° 48° (NE) 19:30:37 437.345
RS-15 08 Feb 19:25:22 19:37:19 88° 28° (NNE) 19:49:42 29.354- 29.394
ISS 08 Feb 19:28:42 19:30:38 15° 168° (SSE) 19:32:33 145.825
CANX-2 08 Feb 19:30:07 19:34:16 59° 67° (ENE) 19:38:28 2200.000
GONETS M04 08 Feb 19:32:24 19:40:56 51° 60° (ENE) 19:49:30
FUNcube-1 08 Feb 19:34:34 19:37:31 19° 49° (NE) 19:40:28 145.935
KKS-1 08 Feb 19:36:43 19:38:47 13° 323° (NW) 19:40:50 437.445
CINEMA 3 08 Feb 19:43:46 19:48:14 62° 68° (ENE) 19:52:32 145.822/145.860
BEESAT 2 08 Feb 19:44:50 19:48:37 40° 134° (SE) 19:52:24 435.950
CUTE-I 08 Feb 19:46:10 19:50:09 21° 274° (W) 19:54:11 437.470
Cosmos 2499 08 Feb 19:47:25 19:55:28 38° 49° (NE) 20:03:02 435.465 / 435.565
AIST 2 08 Feb 19:55:01 19:56:56 13° 116° (ESE) 19:58:50 435.215
HUMSAT D 08 Feb 19:55:22 19:57:26 14° 43° (NE) 19:59:32 437.325/437.525
CUBESAT XI-V 08 Feb 19:56:40 20:01:16 51° 297° (WNW) 20:05:50 437.345
CUBEBUG 2 08 Feb 19:59:27 20:03:27 40° 62° (ENE) 20:07:23 437.445
Cubesat XI-IV 08 Feb 20:00:13 20:03:44 17° 277° (W) 20:07:16 437.490
UWE-3 08 Feb 20:03:00 20:06:49 35° 60° (ENE) 20:10:38 435.000/436.395/437.385
PCSat 08 Feb 20:03:47 20:09:11 62° 228° (SW) 20:14:32 145.827
STRAND 1 08 Feb 20:06:33 20:11:36 48° 100° (E) 20:16:36 437.568
Oscar 11 08 Feb 20:08:06 20:12:04 37° 59° (ENE) 20:16:04 145.826/435.025
ESTCUBE 1 08 Feb 20:09:29 20:10:08 10° 31° (NNE) 20:10:47 437.505/2401.250
COMPASS 1 08 Feb 20:17:29 20:21:40 82° 71° (ENE) 20:25:54 437.405
DOVE 4 08 Feb 20:17:45 20:22:29 41° 263° (W) 20:26:58 437.250
Cosmos 2491 08 Feb 20:20:39 20:27:09 22° 334° (NNW) 20:33:42 435.465 / 435.565
CUTE 1.7 + AOD 2 08 Feb 20:21:01 20:25:14 64° 258° (WSW) 20:29:28 437.475
DX 1 08 Feb 20:21:13 20:22:30 11° 34° (NE) 20:23:47 434.975-435.025
Cosmos 2504 08 Feb 20:25:12 20:28:41 13° 305° (NW) 20:32:08 435.465 / 435.565
PRISM 08 Feb 20:27:36 20:31:18 29° 94° (E) 20:34:58 437.425
SEEDS 08 Feb 20:29:32 20:33:43 67° 256° (WSW) 20:37:57 437.485
GOMX 1 08 Feb 20:31:19 20:35:40 25° 271° (W) 20:39:51 467.674
DELFI C3 08 Feb 20:36:03 20:39:44 36° 61° (ENE) 20:43:26 145.870
HO-68 08 Feb 20:41:11 20:48:11 53° 259° (W) 20:55:15 435.675
AAUSAT CUBESAT 2 08 Feb 20:47:26 20:51:34 68° 256° (WSW) 20:55:45 437.432
AIST 1 08 Feb 20:49:04 20:52:37 23° 55° (NE) 20:56:09
AO-85 08 Feb 20:53:29 20:56:57 18° 246° (WSW) 21:00:14 145.980
ZACube-1 08 Feb 20:59:24 21:03:34 69° 70° (ENE) 21:07:43 437.345
BRITE-PL 08 Feb 21:00:11 21:02:42 13° 284° (WNW) 21:05:11 437.365/2234.400
BEESAT 3 08 Feb 21:00:15 21:04:16 73° 335° (NNW) 21:08:17 437.485
ISS 08 Feb 21:04:12 21:06:14 16° 188° (S) 21:08:16 145.825
50 SAT 08 Feb 21:04:45 21:06:46 14° 46° (NE) 21:08:48 437.505
CANX-2 08 Feb 21:06:50 21:10:28 28° 268° (W) 21:14:09 2200.000
FUNcube-1 08 Feb 21:09:06 21:13:17 79° 69° (ENE) 21:17:26 145.935
VELOX 1 08 Feb 21:09:14 21:12:17 18° 45° (NE) 21:15:20 145.980
CINEMA 3 08 Feb 21:21:50 21:25:44 28° 267° (W) 21:29:32 145.822/145.860
BEESAT 2 08 Feb 21:22:22 21:26:24 71° 336° (NNW) 21:30:27 435.950
AISAT 08 Feb 21:25:07 21:28:35 22° 49° (NE) 21:32:03 437.250
HUMSAT D 08 Feb 21:28:21 21:32:18 50° 64° (ENE) 21:36:17 437.325/437.525
GONETS M04 08 Feb 21:29:34 21:38:12 64° 266° (W) 21:46:52
AIST 2 08 Feb 21:30:33 21:34:35 48° 137° (SE) 21:38:37 435.215
CUBESAT XI-V 08 Feb 21:34:55 21:37:47 16° 319° (NW) 21:40:38 437.345
CUBEBUG 2 08 Feb 21:36:07 21:40:10 40° 262° (W) 21:44:09 437.445
RS-15 08 Feb 21:37:53 21:49:16 53° 238° (WSW) 22:00:56 29.354- 29.394
UWE-3 08 Feb 21:39:11 21:43:17 47° 260° (W) 21:47:20 435.000/436.395/437.385
Cosmos 2499 08 Feb 21:41:00 21:49:47 90° 247° (WSW) 21:57:57 435.465 / 435.565
ESTCUBE 1 08 Feb 21:41:49 21:45:42 28° 54° (NE) 21:49:36 437.505/2401.250
Oscar 11 08 Feb 21:44:01 21:48:10 47° 260° (W) 21:52:24 145.826/435.025
UKube-1 08 Feb 21:44:06 21:47:42 26° 52° (NE) 21:51:20 .
STRAND 1 08 Feb 21:45:55 21:50:50 45° 301° (WNW) 21:55:44 437.568
CUBEBUG 1 08 Feb 21:47:53 21:51:32 26° 52° (NE) 21:55:11 437.445
PCSat 08 Feb 21:47:58 21:51:41 19° 250° (WSW) 21:55:24 145.827
DX 1 08 Feb 21:53:40 21:57:35 32° 56° (NE) 22:01:31 434.975-435.025
COMPASS 1 08 Feb 21:54:43 21:57:49 20° 272° (W) 22:00:56 437.405
SPROUT 08 Feb 21:56:32 21:59:13 16° 45° (NE) 22:01:55 437.525
CUTE 1.7 + AOD 2 08 Feb 21:59:54 22:01:58 13° 278° (W) 22:04:02 437.475
PRISM 08 Feb 22:02:47 22:06:56 56° 295° (WNW) 22:11:02 437.425
SEEDS 08 Feb 22:08:08 22:10:18 14° 278° (W) 22:12:28 437.485
DELFI C3 08 Feb 22:10:51 22:14:40 42° 262° (W) 22:18:31 145.870
TISAT 1 08 Feb 22:11:08 22:12:51 12° 39° (NE) 22:14:34 437.305
Cosmos 2491 08 Feb 22:22:30 22:28:11 18° 7° (N) 22:33:54 435.465 / 435.565
AAUSAT CUBESAT 2 08 Feb 22:25:44 22:27:54 14° 277° (W) 22:30:05 437.432
AIST 1 08 Feb 22:26:23 22:30:48 80° 258° (WSW) 22:35:09
HO-68 08 Feb 22:33:25 22:37:43 16° 283° (WNW) 22:42:03 435.675
UNISAT 6 08 Feb 22:34:26 22:37:47 21° 89° (E) 22:41:08 437.425
50 SAT 08 Feb 22:36:29 22:40:09 60° 68° (ENE) 22:43:52 437.505
ZACube-1 08 Feb 22:36:58 22:40:19 23° 270° (W) 22:43:41 437.345
BEESAT 3 08 Feb 22:38:33 22:42:27 47° 358° (N) 22:46:20 437.485
VELOX 1 08 Feb 22:43:40 22:48:06 64° 67° (ENE) 22:52:32 145.980
FUNcube-1 08 Feb 22:46:56 22:50:05 20° 271° (W) 22:53:13 145.935
AISAT 08 Feb 23:00:06 23:04:36 85° 73° (ENE) 23:09:06 437.250
BEESAT 2 08 Feb 23:00:48 23:04:44 47° 359° (N) 23:08:39 435.950
POLYITAN 1 08 Feb 23:01:14 23:03:10 13° 82° (E) 23:05:06 437.675
QB50P2 08 Feb 23:01:51 23:03:55 13° 83° (E) 23:05:59 145.880/145.840
HUMSAT D 08 Feb 23:04:32 23:08:11 31° 266° (W) 23:11:51 437.325/437.525
AIST 2 08 Feb 23:08:54 23:13:04 66° 338° (NNW) 23:17:14 435.215
SWISSCUBE 08 Feb 23:15:12 23:17:57 15° 38° (NE) 23:20:44 437.505
ESTCUBE 1 08 Feb 23:17:41 23:22:13 71° 254° (WSW) 23:26:49 437.505/2401.250
UKube-1 08 Feb 23:19:06 23:23:27 75° 254° (WSW) 23:27:50 .
ANTELSAT 08 Feb 23:19:10 23:23:18 44° 99° (E) 23:27:29 437.575/2403.000
CUBEBUG 1 08 Feb 23:23:01 23:27:29 79° 254° (WSW) 23:31:58 437.445
STRAND 1 08 Feb 23:25:49 23:28:59 17° 324° (NW) 23:32:09 437.568
TIGRISAT 08 Feb 23:26:25 23:30:35 48° 100° (E) 23:34:48 435.000
GONETS M04 08 Feb 23:27:09 23:33:26 23° 292° (WNW) 23:39:44
DX 1 08 Feb 23:29:18 23:33:39 57° 257° (WSW) 23:38:00 434.975-435.025
SPROUT 08 Feb 23:30:16 23:34:30 59° 67° (ENE) 23:38:45 437.525
POPSAT HIP 1 08 Feb 23:31:10 23:34:22 21° 89° (E) 23:37:34 437.405
Cosmos 2499 08 Feb 23:34:38 23:42:03 33° 282° (WNW) 23:49:03 435.465 / 435.565
NANOSAT C BR1 08 Feb 23:36:29 23:39:50 22° 90° (E) 23:43:08 145.865
DUCHIFAT 1 08 Feb 23:38:25 23:41:44 22° 90° (E) 23:45:02 145.980
PRISM 08 Feb 23:39:01 23:41:32 16° 317° (NW) 23:44:04 437.425
TISAT 1 08 Feb 23:43:38 23:47:35 40° 61° (ENE) 23:51:33 437.305
QB50P1 08 Feb 23:43:45 23:47:18 25° 92° (E) 23:50:50 145.935-145.965
ITUPSAT 1 08 Feb 23:50:19 23:53:52 21° 45° (NE) 23:57:25 437.325
RS-15 08 Feb 23:51:02 23:58:51 21° 265° (W) 00:06:49 29.354- 29.394
BEESAT 08 Feb 23:59:12 00:02:57 23° 47° (NE) 00:06:41 436.000
CUSAT 1 09 Feb 00:01:49 00:03:27 11° 62° (ENE) 00:05:04 437.405
AIST 1 09 Feb 00:05:01 00:07:45 16° 280° (W) 00:10:27
UNISAT 6 09 Feb 00:10:44 00:15:03 79° 290° (WNW) 00:19:24 437.425
50 SAT 09 Feb 00:11:32 00:14:32 23° 268° (W) 00:17:34 437.505
BEESAT 3 09 Feb 00:16:40 00:20:40 65° 22° (NNE) 00:24:37 437.485
VELOX 1 09 Feb 00:21:07 00:24:58 28° 267° (W) 00:28:50 145.980
Cosmos 2491 09 Feb 00:21:23 00:28:47 29° 40° (NE) 00:36:12 435.465 / 435.565
KKS-1 09 Feb 00:21:34 00:22:48 11° 33° (NNE) 00:24:01 437.445
DANDE 09 Feb 00:26:07 00:28:12 11° 58° (ENE) 00:30:16 436.750
POLYITAN 1 09 Feb 00:35:41 00:39:53 62° 103° (ESE) 00:44:04 437.675
QB50P2 09 Feb 00:36:23 00:40:37 65° 104° (ESE) 00:44:48 145.880/145.840
AISAT 09 Feb 00:38:17 00:41:42 21° 271° (W) 00:45:06 437.250
BEESAT 2 09 Feb 00:39:03 00:43:05 67° 23° (NNE) 00:47:05 435.950
BUGSAT 1 09 Feb 00:44:16 00:48:12 42° 99° (E) 00:52:03 437.445
AIST 2 09 Feb 00:47:58 00:52:02 48° 2° (N) 00:56:06 435.215
SWISSCUBE 09 Feb 00:50:15 00:54:48 45° 60° (ENE) 00:59:23 437.505
ANTELSAT 09 Feb 00:56:03 01:00:04 39° 300° (WNW) 01:04:05 437.575/2403.000
ESTCUBE 1 09 Feb 00:57:07 00:59:54 16° 276° (W) 01:02:42 437.505/2401.250
UKube-1 09 Feb 00:57:35 01:00:17 16° 275° (W) 01:03:00 .
CUBEBUG 1 09 Feb 01:01:35 01:04:31 17° 275° (W) 01:07:28 437.445
TIGRISAT 09 Feb 01:03:21 01:07:16 36° 301° (WNW) 01:11:13 435.000
POPSAT HIP 1 09 Feb 01:06:29 01:10:43 79° 289° (WNW) 01:14:55 437.405
SPROUT 09 Feb 01:07:05 01:10:49 28° 267° (W) 01:14:34 437.525
DX 1 09 Feb 01:08:59 01:10:50 12° 278° (W) 01:12:41 434.975-435.025
NANOSAT C BR1 09 Feb 01:11:50 01:16:04 74° 290° (WNW) 01:20:15 145.865
DUCHIFAT 1 09 Feb 01:13:43 01:17:56 73° 291° (WNW) 01:22:06 145.980
QB50P1 09 Feb 01:19:17 01:23:28 63° 294° (WNW) 01:27:38 145.935-145.965
TISAT 1 09 Feb 01:19:18 01:23:19 41° 261° (W) 01:27:21 437.305
ITUPSAT 1 09 Feb 01:26:18 01:31:04 71° 67° (ENE) 01:35:53 437.325
Cosmos 2499 09 Feb 01:30:39 01:32:20 11° 309° (NW) 01:33:59 435.465 / 435.565
YUBILEINY 09 Feb 01:31:43 01:35:48 14° 57° (ENE) 01:39:53 435.215
BEESAT 09 Feb 01:35:25 01:40:12 81° 69° (ENE) 01:45:01 436.000
CUSAT 1 09 Feb 01:36:42 01:43:40 33° 84° (E) 01:50:19 437.405
STARS 09 Feb 01:40:52 01:44:02 20° 47° (NE) 01:47:11 437.465
MOZHAYETS 4 09 Feb 01:42:13 01:45:10 17° 43° (NE) 01:48:07
UNISAT 6 09 Feb 01:48:08 01:51:16 20° 311° (NW) 01:54:24 437.425
Oscar 19 09 Feb 01:52:35 01:57:12 32° 93° (E) 02:01:48 437.125/150
JAS-2 09 Feb 01:52:36 01:57:47 28° 87° (E) 02:02:29 435.910
KKS-1 09 Feb 01:54:17 01:58:14 32° 55° (NE) 02:02:11 437.445
BEESAT 3 09 Feb 01:54:33 01:58:24 46° 223° (SW) 02:02:12 437.485
DANDE 09 Feb 02:01:46 02:08:48 33° 81° (E) 02:15:57 436.750
POLYITAN 1 09 Feb 02:11:53 02:15:31 28° 305° (NW) 02:19:07 437.675
QB50P2 09 Feb 02:12:36 02:16:12 28° 305° (NW) 02:19:48 145.880/145.840
Gurwin Techsat 1B 09 Feb 02:16:01 02:20:22 25° 88° (E) 02:24:41 435.225
BEESAT 2 09 Feb 02:17:05 02:20:55 44° 225° (SW) 02:24:44 435.950
Cosmos 2491 09 Feb 02:18:48 02:27:33 67° 68° (ENE) 02:36:16 435.465 / 435.565
BUGSAT 1 09 Feb 02:19:49 02:23:36 37° 300° (WNW) 02:27:19 437.445
CUBESAT XI-V 09 Feb 02:23:26 02:24:01 10° 30° (NNE) 02:24:37 437.345
AIST 2 09 Feb 02:26:45 02:30:57 75° 25° (NNE) 02:35:07 435.215
SWISSCUBE 09 Feb 02:28:08 02:32:42 43° 261° (W) 02:37:19 437.505
ANTELSAT 09 Feb 02:34:09 02:35:49 12° 322° (NW) 02:37:30 437.575/2403.000
TIGRISAT 09 Feb 02:41:37 02:42:57 11° 323° (NW) 02:44:18 435.000
POPSAT HIP 1 09 Feb 02:42:57 02:46:00 20° 311° (NW) 02:49:01 437.405
NANOSAT C BR1 09 Feb 02:48:19 02:51:14 19° 312° (NW) 02:54:10 145.865
DUCHIFAT 1 09 Feb 02:50:09 02:53:04 19° 312° (NW) 02:55:59 145.980
QB50P1 09 Feb 02:55:54 02:58:37 17° 314° (NW) 03:01:19 145.935-145.965
ITAMSAT 1 09 Feb 02:59:21 03:03:53 28° 91° (E) 03:08:24 435.822/435.867
ITUPSAT 1 09 Feb 03:05:17 03:09:23 27° 268° (W) 03:13:30 437.325
AO-7 09 Feb 03:06:12 03:11:52 19° 79° (ENE) 03:17:28 29.400- 29.500
BEESAT 09 Feb 03:14:44 03:18:35 24° 270° (W) 03:22:28 436.000
STARS 09 Feb 03:15:25 03:19:49 73° 67° (ENE) 03:24:14 437.465
MOZHAYETS 4 09 Feb 03:17:05 03:21:34 57° 65° (ENE) 03:26:07
CUSAT 1 09 Feb 03:17:09 03:25:22 86° 106° (ESE) 03:33:03 437.405
YUBILEINY 09 Feb 03:22:05 03:30:07 42° 83° (E) 03:38:13 435.215
KKS-1 09 Feb 03:30:12 03:34:39 61° 257° (WSW) 03:39:05 437.445
Oscar 19 09 Feb 03:31:49 03:36:57 66° 295° (WNW) 03:42:02 437.125/150
BEESAT 3 09 Feb 03:33:47 03:35:19 12° 244° (WSW) 03:36:50 437.485
JAS-2 09 Feb 03:37:29 03:43:42 81° 293° (WNW) 03:49:13 435.910
Cosmos 2504 09 Feb 03:37:32 03:42:54 18° 62° (ENE) 03:48:19 435.465 / 435.565
DANDE 09 Feb 03:42:43 03:50:58 83° 104° (ESE) 03:59:24 436.750
Gurwin Techsat 1B 09 Feb 03:55:39 04:01:02 88° 286° (WNW) 04:06:22 435.225
CUBESAT XI-V 09 Feb 03:56:07 04:00:05 27° 53° (NE) 04:04:04 437.345
BEESAT 2 09 Feb 03:56:41 03:57:55 11° 245° (WSW) 03:59:11 435.950
BUGSAT 1 09 Feb 03:56:49 03:58:00 11° 322° (NW) 03:59:12 437.445
AIST 2 09 Feb 04:05:26 04:09:18 37° 228° (SW) 04:13:07 435.215
Cosmos 2491 09 Feb 04:16:00 04:24:11 47° 274° (W) 04:32:24 435.465 / 435.565
STRAND 1 09 Feb 04:17:31 04:20:41 17° 36° (NE) 04:23:51 437.568
HORYU 2 09 Feb 04:38:30 04:42:03 23° 90° (E) 04:45:33 437.375
